Tracking 25709 objects as of 24-May-2022
HD Live streaming from Space Station
objects crossing your sky now

SPACEBEE-96

Track SPACEBEE-96 now!
10-day predictions


NORAD ID: 48934
Int'l Code: 2021-059BH
Perigee: 494.5 km
Apogee: 516.4 km
Inclination: 97.5 °
Period: 94.6 minutes
Semi major axis: 6876 km
RCS: Unknown
Launch date: June 30, 2021
Source: United States (US)
Launch site: AIR FORCE EASTERN TEST RANGE (AFETR)
aabbcc
Your satellite tracking list
Your tracking list is empty




NASA's NSSDC Master Catalog

Two Line Element Set (TLE):
1 48934U 21059BH  22143.59604916  .00044662  00000-0  19137-2 0  9992
2 48934  97.5411 274.8261 0015942 185.7243 174.3813 15.22509151 50281
Source of the keplerian elements: AFSPC